Location: Unspecified
(0.0000°N, 0.0000°E)
Time: 19:32:13
(UTC+00:00)

CZ-3C DEB - Pass Details

Date: 14 March 2026
Orbit: 1497 x 35067 km, 20.3° (Epoch: 12 June)

Event Time Altitude Azimuth Distance (km) Brightness Sun altitude
Rises 00:03:23 0° 273° (W) 15,377 ? -87.0°
Reaches altitude 10° 00:16:53 10° 269° (W) 17,271 ? -86.8°
Maximum altitude 09:46:03 58° 332° (NNW) 2,670 ? 54.1°
Drops below altitude 10° 09:54:08 10° 53° (NE) 3,746 ? 56.1°
Sets 09:56:26 0° 58° (ENE) 4,617 ? 56.7°
